• MPC Preparation (Info)

  • MPEC 2014-G37 : 2014 GC34

    The following Minor Planet Electronic Circular may be linked-to from your own Web pages, but must not otherwise be redistributed electronically.

    A form allowing access to any MPEC is at the bottom of this page.


    Read MPEC 2014-G36 Read MPEC 2014-G38


    M.P.E.C. 2014-G37                                Issued 2014 Apr. 7, 18:12 UT
    
         The Minor Planet Electronic Circulars contain information on unusual
             minor planets and routine data on comets.  They are published
       on behalf of Commission 20 of the International Astronomical Union by the
              Minor Planet Center, Smithsonian Astrophysical Observatory,
                              Cambridge, MA 02138, U.S.A.
    
                 Prepared using the Tamkin Foundation Computer Network
    
                                  MPC@CFA.HARVARD.EDU
                URL https://www.minorplanetcenter.net/    ISSN 1523-6714
    
                                       2014 GC34
    
    Observations:
         K14G34C* C2014 04 04.45241 13 33 30.960-14 31 31.41         21.0 wLEG037F51
         K14G34C  C2014 04 04.47512 13 33 16.548-14 30 59.50         21.1 wLEG037F51
         K14G34C  C2014 04 04.48648 13 33 09.400-14 30 43.35         21.0 wLEG037F51
         K14G34C _C2014 04 05.37155913 24 25.921-14 09 51.81         20.2 RtEG037568
         K14G34C _C2014 04 05.37338013 24 24.852-14 09 49.29         20.3 RtEG037568
         K14G34C _C2014 04 05.37463213 24 24.119-14 09 47.51         20.2 RtEG037568
         K14G34C KC2014 04 07.42829 13 06 19.12 -13 22 18.3          19.9 RoEG037291
         K14G34C KC2014 04 07.42950 13 06 18.56 -13 22 16.6          19.5 RoEG037291
         K14G34C KC2014 04 07.43072 13 06 17.95 -13 22 14.8          19.7 RoEG037291
    
    Observer details:
    291 LPL/Spacewatch II.  Observer R. S. McMillan.  1.8-m f/2.7 reflector + CCD.
    568 Mauna Kea.  Observers R. J. Wainscoat, A. Draginda.  Measurers M. Micheli,
        R. J. Wainscoat.  3.6-m Canada-France-Hawaii Telescope + CCD.
    F51 Pan-STARRS 1, Haleakala.  Observers N. Primak, A. Schultz, T. Goggia,
        M. Willman.  Measurer PS1 Science Consortium.  1.8-m Ritchey-Chretien
        + CCD.
    
    Orbital elements:
    2014 GC34                                                Earth MOID = 0.0295 AU
    Epoch 2014 May 23.0 TT = JDT 2456800.5                  MPC
    M 106.95268              (2000.0)            P               Q
    n   0.92427269     Peri.   39.54087     +0.60628559     -0.79330678
    a   1.0437648      Node    13.44554     +0.65570992     +0.45918506
    e   0.7159021      Incl.   13.81342     +0.44995810     +0.39976672
    P   1.07           H   23.1           G   0.15           U   9
    Residuals in seconds of arc
    140404 F51  0.2+  0.1+    140405 568  0.1-  0.2-    140407 291  0.3-  0.0
    140404 F51  0.3-  0.0     140405 568  0.1-  0.2-    140407 291  0.2+  0.0
    140404 F51  0.1+  0.0     140405 568  0.0   0.2-    140407 291  0.1+  0.1+
    
    Ephemeris:
    2014 GC34                a,e,i = 1.04, 0.72, 14                  q = 0.2965
    Date    TT    R. A. (2000) Decl.     Delta      r     Elong.  Phase     V
    2014 03 08    19 41 18.6 -07 52 23   0.2330  0.8707    52.5   115.2    24.1
    ...
    2014 03 23    16 38 29.1 -16 07 30   0.1566  1.0643   111.6    60.5    21.4
    ...
    2014 03 31    14 27 40.1 -16 07 02   0.1757  1.1546   150.2    25.5    20.8
    ...
    2014 04 06    13 18 34.2 -13 54 47   0.2187  1.2171   170.9     7.5    20.8
    2014 04 07    13 09 51.8 -13 31 39   0.2276  1.2271   172.9     5.8    20.8
    2014 04 08    13 01 51.0 -13 09 04   0.2369  1.2369   173.8     5.0    20.9
    ...
    2014 04 14    12 25 38.1 -11 11 14   0.2994  1.2939   164.5    11.9    21.8
    ...
    2014 04 22    11 58 36.3 -09 24 34   0.3957  1.3638   150.6    21.2    22.8
    ...
    2014 05 07    11 39 48.1 -07 54 23   0.6007  1.4781   131.7    30.7    24.2
    
    A. U. Tomatic                (C) Copyright 2014 MPC           M.P.E.C. 2014-G37
    

    Read MPEC 2014-G36 Read MPEC 2014-G38


    MPEC number:

    Enter an MPEC number in one of the following forms:

    • 1997-B01 (the full form)
    • J97B01 (the packed version of the full form)
    • B01 (the abbreviated form)